Time,TemperatureF,DewpointF,PressureIn,WindDirection,WindDirectionDegrees,WindSpeedMPH,WindSpeedGustMPH,Humidity,HourlyPrecipIn,Conditions,Clouds,dailyrainin,SoftwareType,DateUTC
2013-01-22 00:03:00,40.6,32.0,30.11,North,0,1.0,2.0,71,0.00,,,0.00,meteohub,2013-01-22 08:03:00,
2013-01-22 00:09:00,40.5,31.8,30.10,North,0,2.0,2.0,71,0.00,,,0.00,meteohub,2013-01-22 08:09:00,
2013-01-22 00:14:00,40.3,31.6,30.10,North,0,1.0,2.0,71,0.00,,,0.00,meteohub,2013-01-22 08:14:00,
2013-01-22 00:19:00,40.3,32.0,30.10,North,0,1.0,2.0,72,0.00,,,0.00,meteohub,2013-01-22 08:19:00,
2013-01-22 00:24:00,40.1,31.8,30.10,North,0,1.0,2.0,72,0.00,,,0.00,meteohub,2013-01-22 08:24:00,
2013-01-22 00:29:00,39.9,31.3,30.10,North,0,1.0,2.0,71,0.00,,,0.00,meteohub,2013-01-22 08:29:00,
2013-01-22 00:34:00,39.7,31.1,30.10,North,0,1.0,2.0,71,0.00,,,0.00,meteohub,2013-01-22 08:34:00,
2013-01-22 00:39:00,39.6,31.3,30.10,North,0,2.0,2.0,72,0.00,,,0.00,meteohub,2013-01-22 08:39:00,
2013-01-22 00:44:00,39.6,31.3,30.10,NE,45,2.0,2.0,72,0.00,,,0.00,meteohub,2013-01-22 08:44:00,
2013-01-22 00:50:00,39.6,31.3,30.10,North,0,2.0,2.0,72,0.00,,,0.00,meteohub,2013-01-22 08:50:00,
2013-01-22 00:55:00,39.4,31.1,30.10,North,0,1.0,2.0,72,0.00,,,0.00,meteohub,2013-01-22 08:55:00,
2013-01-22 01:00:00,39.4,31.1,30.10,North,0,2.0,2.0,72,0.00,,,0.00,meteohub,2013-01-22 09:00:00,
2013-01-22 01:05:00,39.4,31.1,30.10,North,0,2.0,2.0,72,0.00,,,0.00,meteohub,2013-01-22 09:05:00,
2013-01-22 01:10:00,39.4,31.1,30.10,North,0,1.0,2.0,72,0.00,,,0.00,meteohub,2013-01-22 09:10:00,
2013-01-22 01:15:00,39.4,30.7,30.09,North,0,0.0,2.0,71,0.00,,,0.00,meteohub,2013-01-22 09:15:00,
2013-01-22 01:20:00,39.4,30.7,30.10,North,0,2.0,2.0,71,0.00,,,0.00,meteohub,2013-01-22 09:20:00,
2013-01-22 01:25:00,39.2,30.6,30.10,North,0,1.0,2.0,71,0.00,,,0.00,meteohub,2013-01-22 09:25:00,
2013-01-22 01:30:00,39.2,30.6,30.10,North,0,2.0,2.0,71,0.00,,,0.00,meteohub,2013-01-22 09:30:00,
2013-01-22 01:35:00,39.0,30.7,30.10,North,0,2.0,2.0,72,0.00,,,0.00,meteohub,2013-01-22 09:35:00,
2013-01-22 01:41:00,39.0,30.7,30.09,North,0,2.0,2.0,72,0.00,,,0.00,meteohub,2013-01-22 09:41:00,
2013-01-22 01:46:00,39.0,30.4,30.10,North,0,1.0,2.0,71,0.00,,,0.00,meteohub,2013-01-22 09:46:00,
2013-01-22 01:51:00,39.0,30.4,30.10,North,0,2.0,2.0,71,0.00,,,0.00,meteohub,2013-01-22 09:51:00,
2013-01-22 01:56:00,39.2,30.6,30.10,North,0,2.0,2.0,71,0.00,,,0.00,meteohub,2013-01-22 09:56:00,
2013-01-22 02:01:00,39.0,30.4,30.09,North,0,2.0,2.0,71,0.00,,,0.00,meteohub,2013-01-22 10:01:00,
2013-01-22 02:06:00,39.0,30.4,30.10,North,0,2.0,2.0,71,0.00,,,0.00,meteohub,2013-01-22 10:06:00,
2013-01-22 02:11:00,39.0,30.4,30.09,North,0,2.0,2.0,71,0.00,,,0.00,meteohub,2013-01-22 10:11:00,
2013-01-22 02:16:00,39.0,30.4,30.09,North,0,2.0,2.0,71,0.00,,,0.00,meteohub,2013-01-22 10:16:00,
2013-01-22 02:21:00,38.8,30.2,30.09,North,0,2.0,2.0,71,0.00,,,0.00,meteohub,2013-01-22 10:21:00,
2013-01-22 02:26:00,38.8,30.2,30.09,North,0,2.0,2.0,71,0.00,,,0.00,meteohub,2013-01-22 10:26:00,
2013-01-22 02:31:00,38.7,30.0,30.09,North,0,2.0,2.0,71,0.00,,,0.00,meteohub,2013-01-22 10:31:00,
2013-01-22 02:37:00,38.7,30.0,30.09,North,0,2.0,2.0,71,0.00,,,0.00,meteohub,2013-01-22 10:37:00,
2013-01-22 02:42:00,38.7,30.0,30.09,North,0,1.0,2.0,71,0.00,,,0.00,meteohub,2013-01-22 10:42:00,
2013-01-22 02:47:00,38.5,29.8,30.09,North,0,0.0,2.0,71,0.00,,,0.00,meteohub,2013-01-22 10:47:00,
2013-01-22 02:52:00,38.3,29.7,30.09,North,0,2.0,2.0,71,0.00,,,0.00,meteohub,2013-01-22 10:52:00,
2013-01-22 02:57:00,38.1,29.5,30.09,North,0,2.0,2.0,71,0.00,,,0.00,meteohub,2013-01-22 10:57:00,
2013-01-22 03:02:00,38.3,30.0,30.08,North,0,2.0,2.0,72,0.00,,,0.00,meteohub,2013-01-22 11:02:00,
2013-01-22 03:07:00,38.3,30.0,30.08,North,0,2.0,2.0,72,0.00,,,0.00,meteohub,2013-01-22 11:07:00,
2013-01-22 03:12:00,38.5,30.2,30.07,North,0,2.0,2.0,72,0.00,,,0.00,meteohub,2013-01-22 11:12:00,
2013-01-22 03:17:00,38.5,30.2,30.08,North,0,2.0,2.0,72,0.00,,,0.00,meteohub,2013-01-22 11:17:00,
2013-01-22 03:22:00,38.7,30.4,30.07,North,0,2.0,2.0,72,0.00,,,0.00,meteohub,2013-01-22 11:22:00,
2013-01-22 03:27:00,38.8,30.6,30.07,North,0,3.0,3.0,72,0.00,,,0.00,meteohub,2013-01-22 11:27:00,
2013-01-22 03:32:00,38.8,30.9,30.07,North,0,2.0,3.0,73,0.00,,,0.00,meteohub,2013-01-22 11:32:00,
2013-01-22 03:37:00,39.0,30.7,30.07,North,0,2.0,3.0,72,0.00,,,0.00,meteohub,2013-01-22 11:37:00,
2013-01-22 03:43:00,39.0,30.7,30.06,North,0,2.0,3.0,72,0.00,,,0.00,meteohub,2013-01-22 11:43:00,
2013-01-22 03:48:00,39.0,30.7,30.07,North,0,2.0,2.0,72,0.00,,,0.00,meteohub,2013-01-22 11:48:00,
2013-01-22 03:53:00,39.0,30.7,30.07,North,0,2.0,2.0,72,0.00,,,0.00,meteohub,2013-01-22 11:53:00,
2013-01-22 03:58:00,39.2,31.3,30.06,North,0,2.0,2.0,73,0.00,,,0.00,meteohub,2013-01-22 11:58:00,
2013-01-22 04:03:00,39.2,31.3,30.06,North,0,2.0,2.0,73,0.00,,,0.00,meteohub,2013-01-22 12:03:00,
2013-01-22 04:08:00,39.2,31.3,30.06,NE,45,2.0,2.0,73,0.00,,,0.00,meteohub,2013-01-22 12:08:00,
2013-01-22 04:13:00,41.7,33.4,30.06,North,0,2.0,2.0,72,0.00,,,0.00,meteohub,2013-01-22 12:13:00,
2013-01-22 04:19:00,39.0,31.1,30.06,North,0,2.0,2.0,73,0.00,,,0.00,meteohub,2013-01-22 12:19:00,
2013-01-22 04:24:00,38.8,30.9,30.06,North,0,2.0,2.0,73,0.00,,,0.00,meteohub,2013-01-22 12:24:00,
2013-01-22 04:29:00,38.8,30.9,30.06,North,0,3.0,3.0,73,0.00,,,0.00,meteohub,2013-01-22 12:29:00,
2013-01-22 04:34:00,38.8,30.9,30.06,North,0,2.0,3.0,73,0.00,,,0.00,meteohub,2013-01-22 12:34:00,
2013-01-22 04:39:00,38.7,30.7,30.06,North,0,2.0,3.0,73,0.00,,,0.00,meteohub,2013-01-22 12:39:00,
2013-01-22 04:44:00,38.7,30.7,30.06,North,0,2.0,3.0,73,0.00,,,0.00,meteohub,2013-01-22 12:44:00,
2013-01-22 04:49:00,38.7,30.7,30.06,North,0,2.0,3.0,73,0.00,,,0.00,meteohub,2013-01-22 12:49:00,
2013-01-22 04:54:00,38.7,30.4,30.06,NE,45,2.0,5.0,72,0.00,,,0.00,meteohub,2013-01-22 12:54:00,
2013-01-22 05:00:00,38.7,30.4,30.06,North,0,2.0,5.0,72,0.00,,,0.00,meteohub,2013-01-22 13:00:00,
2013-01-22 05:05:00,38.7,30.4,30.06,North,0,2.0,5.0,72,0.00,,,0.00,meteohub,2013-01-22 13:05:00,
2013-01-22 05:11:00,38.5,30.2,30.06,North,0,2.0,2.0,72,0.00,,,0.00,meteohub,2013-01-22 13:11:00,
2013-01-22 05:16:00,38.5,30.2,30.06,North,0,2.0,2.0,72,0.00,,,0.00,meteohub,2013-01-22 13:16:00,
2013-01-22 05:21:00,38.5,30.6,30.06,North,0,2.0,2.0,73,0.00,,,0.00,meteohub,2013-01-22 13:21:00,
2013-01-22 05:27:00,38.5,30.6,30.06,North,0,1.0,2.0,73,0.00,,,0.00,meteohub,2013-01-22 13:27:00,
2013-01-22 05:32:00,38.5,30.6,30.06,North,0,1.0,2.0,73,0.00,,,0.00,meteohub,2013-01-22 13:32:00,
2013-01-22 05:37:00,38.5,30.9,30.06,North,0,1.0,2.0,74,0.00,,,0.00,meteohub,2013-01-22 13:37:00,
2013-01-22 05:42:00,38.5,30.9,30.07,NE,45,2.0,2.0,74,0.00,,,0.00,meteohub,2013-01-22 13:42:00,
2013-01-22 05:47:00,38.3,30.7,30.07,NE,45,1.0,2.0,74,0.00,,,0.00,meteohub,2013-01-22 13:47:00,
2013-01-22 05:52:00,38.1,30.6,30.07,North,0,1.0,2.0,74,0.00,,,0.00,meteohub,2013-01-22 13:52:00,
2013-01-22 05:57:00,37.9,30.4,30.08,North,0,0.0,2.0,74,0.00,,,0.00,meteohub,2013-01-22 13:57:00,
2013-01-22 06:02:00,37.8,30.6,30.08,North,0,0.0,2.0,75,0.00,,,0.00,meteohub,2013-01-22 14:02:00,
2013-01-22 06:08:00,37.4,30.2,30.07,North,0,0.0,1.0,75,0.00,,,0.00,meteohub,2013-01-22 14:08:00,
2013-01-22 06:13:00,37.2,30.0,30.08,North,0,0.0,0.0,75,0.00,,,0.00,meteohub,2013-01-22 14:13:00,
2013-01-22 06:18:00,36.9,30.0,30.07,North,0,0.0,0.0,76,0.00,,,0.00,meteohub,2013-01-22 14:18:00,
2013-01-22 06:24:00,36.5,29.7,30.08,North,0,0.0,0.0,76,0.00,,,0.00,meteohub,2013-01-22 14:24:00,
2013-01-22 06:29:00,36.3,29.5,30.08,North,0,0.0,0.0,76,0.00,,,0.00,meteohub,2013-01-22 14:29:00,
2013-01-22 06:34:00,36.0,29.5,30.08,North,0,0.0,0.0,77,0.00,,,0.00,meteohub,2013-01-22 14:34:00,
2013-01-22 06:39:00,35.6,29.1,30.08,North,0,0.0,0.0,77,0.00,,,0.00,meteohub,2013-01-22 14:39:00,
2013-01-22 06:44:00,35.2,29.1,30.08,North,0,0.0,0.0,78,0.00,,,0.00,meteohub,2013-01-22 14:44:00,
2013-01-22 06:49:00,34.9,28.8,30.08,North,0,0.0,0.0,78,0.00,,,0.00,meteohub,2013-01-22 14:49:00,
2013-01-22 06:55:00,34.5,28.4,30.08,North,0,0.0,0.0,78,0.00,,,0.00,meteohub,2013-01-22 14:55:00,
2013-01-22 07:00:00,34.3,28.6,30.08,North,0,0.0,0.0,79,0.00,,,0.00,meteohub,2013-01-22 15:00:00,
2013-01-22 07:05:00,34.0,28.2,30.08,North,0,0.0,0.0,79,0.00,,,0.00,meteohub,2013-01-22 15:05:00,
2013-01-22 07:10:00,33.8,28.0,30.08,North,0,0.0,0.0,79,0.00,,,0.00,meteohub,2013-01-22 15:10:00,
2013-01-22 07:15:00,33.6,28.0,30.08,North,0,0.0,0.0,80,0.00,,,0.00,meteohub,2013-01-22 15:15:00,
2013-01-22 07:20:00,33.3,27.7,30.08,North,0,0.0,0.0,80,0.00,,,0.00,meteohub,2013-01-22 15:20:00,
2013-01-22 07:26:00,33.1,27.5,30.09,North,0,0.0,0.0,80,0.00,,,0.00,meteohub,2013-01-22 15:26:00,
2013-01-22 07:31:00,33.1,27.9,30.08,North,0,0.0,1.0,81,0.00,,,0.00,meteohub,2013-01-22 15:31:00,
2013-01-22 07:36:00,33.3,28.0,30.08,North,0,0.0,1.0,81,0.00,,,0.00,meteohub,2013-01-22 15:36:00,
2013-01-22 07:42:00,33.6,28.8,30.08,North,0,0.0,0.0,82,0.00,,,0.00,meteohub,2013-01-22 15:42:00,
2013-01-22 07:47:00,33.8,28.9,30.08,North,0,0.0,0.0,82,0.00,,,0.00,meteohub,2013-01-22 15:47:00,
2013-01-22 07:52:00,34.0,28.8,30.08,North,0,0.0,0.0,81,0.00,,,0.00,meteohub,2013-01-22 15:52:00,
2013-01-22 07:57:00,34.0,29.1,30.09,North,0,0.0,0.0,82,0.00,,,0.00,meteohub,2013-01-22 15:57:00,
2013-01-22 08:02:00,34.3,29.5,30.09,North,0,0.0,0.0,82,0.00,,,0.00,meteohub,2013-01-22 16:02:00,
2013-01-22 08:07:00,34.5,29.7,30.09,North,0,0.0,0.0,82,0.00,,,0.00,meteohub,2013-01-22 16:07:00,
2013-01-22 08:12:00,34.9,30.0,30.09,North,0,0.0,0.0,82,0.00,,,0.00,meteohub,2013-01-22 16:12:00,
2013-01-22 08:17:00,35.4,30.6,30.09,North,0,0.0,0.0,82,0.00,,,0.00,meteohub,2013-01-22 16:17:00,
2013-01-22 08:22:00,36.0,30.9,30.09,North,0,0.0,0.0,82,0.00,,,0.00,meteohub,2013-01-22 16:22:00,
2013-01-22 08:28:00,36.5,31.5,30.09,North,0,1.0,0.0,82,0.00,,,0.00,meteohub,2013-01-22 16:28:00,
2013-01-22 08:33:00,37.2,32.0,30.09,North,0,1.0,1.0,81,0.00,,,0.00,meteohub,2013-01-22 16:33:00,
2013-01-22 08:38:00,37.9,32.7,30.09,North,0,0.0,1.0,81,0.00,,,0.00,meteohub,2013-01-22 16:38:00,
2013-01-22 08:44:00,38.7,33.1,30.09,North,0,0.0,1.0,80,0.00,,,0.00,meteohub,2013-01-22 16:44:00,
2013-01-22 08:49:00,39.4,33.8,30.10,North,0,1.0,2.0,80,0.00,,,0.00,meteohub,2013-01-22 16:49:00,
2013-01-22 08:54:00,40.3,34.3,30.10,North,0,2.0,2.0,79,0.00,,,0.00,meteohub,2013-01-22 16:54:00,
2013-01-22 08:59:00,41.4,35.1,30.10,NE,45,2.0,2.0,78,0.00,,,0.00,meteohub,2013-01-22 16:59:00,
2013-01-22 09:05:00,42.1,35.4,30.10,NE,45,2.0,2.0,77,0.00,,,0.00,meteohub,2013-01-22 17:05:00,
2013-01-22 09:10:00,43.0,35.6,30.10,NE,45,2.0,2.0,75,0.00,,,0.00,meteohub,2013-01-22 17:10:00,
2013-01-22 09:15:00,43.7,36.0,30.10,NE,45,2.0,2.0,74,0.00,,,0.00,meteohub,2013-01-22 17:15:00,
2013-01-22 09:20:00,44.6,36.1,30.11,ENE,68,2.0,2.0,72,0.00,,,0.00,meteohub,2013-01-22 17:20:00,
2013-01-22 09:25:00,45.3,36.5,30.11,North,0,2.0,3.0,71,0.00,,,0.00,meteohub,2013-01-22 17:25:00,
2013-01-22 09:31:00,45.9,36.7,30.11,NW,315,1.0,3.0,70,0.00,,,0.00,meteohub,2013-01-22 17:31:00,
2013-01-22 09:36:00,46.9,37.2,30.11,North,0,2.0,3.0,69,0.00,,,0.00,meteohub,2013-01-22 17:36:00,
2013-01-22 09:41:00,47.3,37.2,30.11,NE,45,2.0,2.0,68,0.00,,,0.00,meteohub,2013-01-22 17:41:00,
2013-01-22 09:46:00,47.3,37.2,30.12,NE,45,2.0,4.0,68,0.00,,,0.00,meteohub,2013-01-22 17:46:00,
2013-01-22 09:52:00,47.5,37.8,30.12,North,0,2.0,4.0,69,0.00,,,0.00,meteohub,2013-01-22 17:52:00,
2013-01-22 09:57:00,47.5,37.8,30.12,North,0,1.0,4.0,69,0.00,,,0.00,meteohub,2013-01-22 17:57:00,
2013-01-22 10:02:00,47.8,38.1,30.12,NE,45,4.0,4.0,69,0.00,,,0.00,meteohub,2013-01-22 18:02:00,
2013-01-22 10:07:00,48.2,38.5,30.12,East,90,2.0,4.0,69,0.00,,,0.00,meteohub,2013-01-22 18:07:00,
2013-01-22 10:12:00,48.6,38.8,30.12,East,90,2.0,4.0,69,0.00,,,0.00,meteohub,2013-01-22 18:12:00,
2013-01-22 10:18:00,49.1,39.4,30.12,NE,45,2.0,4.0,69,0.00,,,0.00,meteohub,2013-01-22 18:18:00,
2013-01-22 10:23:00,50.0,39.9,30.11,North,0,2.0,3.0,68,0.00,,,0.00,meteohub,2013-01-22 18:23:00,
2013-01-22 10:28:00,50.7,40.1,30.11,NW,315,2.0,3.0,67,0.00,,,0.00,meteohub,2013-01-22 18:28:00,
2013-01-22 10:33:00,51.6,40.6,30.12,NE,45,2.0,3.0,66,0.00,,,0.00,meteohub,2013-01-22 18:33:00,
2013-01-22 10:38:00,52.3,40.5,30.11,NE,45,4.0,4.0,64,0.00,,,0.00,meteohub,2013-01-22 18:38:00,
2013-01-22 10:43:00,52.9,40.6,30.11,NE,45,2.0,4.0,63,0.00,,,0.00,meteohub,2013-01-22 18:43:00,
2013-01-22 10:48:00,53.8,41.0,30.11,North,0,2.0,4.0,62,0.00,,,0.00,meteohub,2013-01-22 18:48:00,
2013-01-22 10:54:00,54.7,41.9,30.11,NE,45,2.0,4.0,62,0.00,,,0.00,meteohub,2013-01-22 18:54:00,
2013-01-22 10:59:00,55.6,41.9,30.11,North,0,2.0,3.0,60,0.00,,,0.00,meteohub,2013-01-22 18:59:00,
2013-01-22 11:04:00,56.3,41.2,30.10,NE,45,3.0,3.0,57,0.00,,,0.00,meteohub,2013-01-22 19:04:00,
2013-01-22 11:09:00,56.8,41.4,30.10,NE,45,2.0,3.0,56,0.00,,,0.00,meteohub,2013-01-22 19:09:00,
2013-01-22 11:14:00,57.4,41.9,30.11,NE,45,2.0,4.0,56,0.00,,,0.00,meteohub,2013-01-22 19:14:00,
2013-01-22 11:20:00,58.1,41.5,30.10,NE,45,3.0,4.0,54,0.00,,,0.00,meteohub,2013-01-22 19:20:00,
2013-01-22 11:25:00,58.5,40.8,30.09,East,90,3.0,4.0,52,0.00,,,0.00,meteohub,2013-01-22 19:25:00,
2013-01-22 11:30:00,58.8,40.8,30.09,NE,45,2.0,4.0,51,0.00,,,0.00,meteohub,2013-01-22 19:30:00,
2013-01-22 11:35:00,59.5,40.8,30.09,NE,45,2.0,4.0,50,0.00,,,0.00,meteohub,2013-01-22 19:35:00,
2013-01-22 11:40:00,60.1,40.8,30.09,West,270,2.0,4.0,49,0.00,,,0.00,meteohub,2013-01-22 19:40:00,
2013-01-22 11:45:00,60.3,40.5,30.09,North,0,4.0,4.0,48,0.00,,,0.00,meteohub,2013-01-22 19:45:00,
2013-01-22 11:50:00,60.6,39.7,30.08,NE,45,4.0,4.0,46,0.00,,,0.00,meteohub,2013-01-22 19:50:00,
2013-01-22 11:55:00,60.6,39.2,30.07,East,90,3.0,5.0,45,0.00,,,0.00,meteohub,2013-01-22 19:55:00,
2013-01-22 12:01:00,60.6,39.7,30.07,NE,45,3.0,5.0,46,0.00,,,0.00,meteohub,2013-01-22 20:01:00,
2013-01-22 12:06:00,61.0,39.6,30.07,NE,45,2.0,5.0,45,0.00,,,0.00,meteohub,2013-01-22 20:06:00,
2013-01-22 12:11:00,61.3,40.5,30.06,North,0,2.0,5.0,46,0.00,,,0.00,meteohub,2013-01-22 20:11:00,
2013-01-22 12:16:00,61.9,39.7,30.06,NE,45,2.0,5.0,44,0.00,,,0.00,meteohub,2013-01-22 20:16:00,
2013-01-22 12:22:00,62.2,39.4,30.06,NE,45,4.0,5.0,43,0.00,,,0.00,meteohub,2013-01-22 20:22:00,
2013-01-22 12:27:00,62.4,39.6,30.05,North,0,3.0,5.0,43,0.00,,,0.00,meteohub,2013-01-22 20:27:00,
2013-01-22 12:32:00,62.8,39.4,30.05,ENE,68,3.0,5.0,42,0.00,,,0.00,meteohub,2013-01-22 20:32:00,
2013-01-22 12:38:00,62.8,39.4,30.04,NE,45,2.0,6.0,42,0.00,,,0.00,meteohub,2013-01-22 20:38:00,
2013-01-22 12:43:00,63.0,39.6,30.04,North,0,2.0,6.0,42,0.00,,,0.00,meteohub,2013-01-22 20:43:00,
2013-01-22 12:48:00,63.7,40.1,30.04,NE,45,2.0,6.0,42,0.00,,,0.00,meteohub,2013-01-22 20:48:00,
2013-01-22 12:53:00,64.0,39.2,30.04,NE,45,3.0,4.0,40,0.00,,,0.00,meteohub,2013-01-22 20:53:00,
2013-01-22 12:58:00,64.0,39.2,30.04,NE,45,3.0,5.0,40,0.00,,,0.00,meteohub,2013-01-22 20:58:00,
2013-01-22 13:04:00,64.0,38.7,30.04,North,0,3.0,6.0,39,0.00,,,0.00,meteohub,2013-01-22 21:04:00,
2013-01-22 13:09:00,63.9,38.5,30.03,North,0,3.0,6.0,39,0.00,,,0.00,meteohub,2013-01-22 21:09:00,
2013-01-22 13:14:00,63.9,38.5,30.03,NE,45,2.0,6.0,39,0.00,,,0.00,meteohub,2013-01-22 21:14:00,
2013-01-22 13:19:00,64.2,38.1,30.03,NE,45,3.0,4.0,38,0.00,,,0.00,meteohub,2013-01-22 21:19:00,
2013-01-22 13:24:00,64.6,37.8,30.03,NE,45,4.0,7.0,37,0.00,,,0.00,meteohub,2013-01-22 21:24:00,
2013-01-22 13:30:00,65.1,37.6,30.02,NE,45,2.0,7.0,36,0.00,,,0.00,meteohub,2013-01-22 21:30:00,
2013-01-22 13:31:00,65.1,37.6,30.02,NE,45,2.0,7.0,36,0.00,,,0.00,meteohub,2013-01-22 21:31:00,
2013-01-22 13:36:00,65.3,36.9,30.01,NE,45,3.0,7.0,35,0.00,,,0.00,meteohub,2013-01-22 21:36:00,
2013-01-22 13:42:00,65.3,35.4,30.01,NE,45,3.0,5.0,33,0.00,,,0.00,meteohub,2013-01-22 21:42:00,
2013-01-22 13:47:00,65.5,34.9,30.01,NE,45,4.0,5.0,32,0.00,,,0.00,meteohub,2013-01-22 21:47:00,
2013-01-22 13:52:00,65.5,34.9,30.01,NE,45,4.0,5.0,32,0.00,,,0.00,meteohub,2013-01-22 21:52:00,
2013-01-22 13:57:00,65.5,35.6,30.01,ENE,68,4.0,5.0,33,0.00,,,0.00,meteohub,2013-01-22 21:57:00,
2013-01-22 14:02:00,65.7,35.8,30.01,NE,45,2.0,4.0,33,0.00,,,0.00,meteohub,2013-01-22 22:02:00,
2013-01-22 14:07:00,65.7,35.1,30.01,NE,45,2.0,4.0,32,0.00,,,0.00,meteohub,2013-01-22 22:07:00,
2013-01-22 14:12:00,65.7,35.8,30.01,NE,45,4.0,4.0,33,0.00,,,0.00,meteohub,2013-01-22 22:12:00,
2013-01-22 14:17:00,65.7,35.8,30.01,NE,45,2.0,4.0,33,0.00,,,0.00,meteohub,2013-01-22 22:17:00,
2013-01-22 14:23:00,65.5,35.6,30.01,NW,315,2.0,4.0,33,0.00,,,0.00,meteohub,2013-01-22 22:23:00,
2013-01-22 14:28:00,65.1,36.1,30.00,NE,45,4.0,4.0,34,0.00,,,0.00,meteohub,2013-01-22 22:28:00,
2013-01-22 14:33:00,64.9,36.0,30.00,NE,45,4.0,4.0,34,0.00,,,0.00,meteohub,2013-01-22 22:33:00,
2013-01-22 14:38:00,64.6,35.6,30.00,NE,45,2.0,4.0,34,0.00,,,0.00,meteohub,2013-01-22 22:38:00,
2013-01-22 14:43:00,64.2,35.2,30.00,North,0,4.0,4.0,34,0.00,,,0.00,meteohub,2013-01-22 22:43:00,
2013-01-22 14:48:00,63.9,35.6,30.00,NE,45,2.0,4.0,35,0.00,,,0.00,meteohub,2013-01-22 22:48:00,
2013-01-22 14:53:00,64.2,36.0,29.99,North,0,3.0,4.0,35,0.00,,,0.00,meteohub,2013-01-22 22:53:00,
2013-01-22 14:58:00,64.8,36.5,30.00,NE,45,2.0,4.0,35,0.00,,,0.00,meteohub,2013-01-22 22:58:00,
2013-01-22 15:04:00,65.3,36.9,30.00,NW,315,2.0,4.0,35,0.00,,,0.00,meteohub,2013-01-22 23:04:00,
2013-01-22 15:09:00,65.5,37.0,30.00,NE,45,2.0,3.0,35,0.00,,,0.00,meteohub,2013-01-22 23:09:00,
2013-01-22 15:14:00,65.5,37.0,30.01,NE,45,2.0,4.0,35,0.00,,,0.00,meteohub,2013-01-22 23:14:00,
2013-01-22 15:19:00,65.1,36.9,30.00,NE,45,2.0,4.0,35,0.00,,,0.00,meteohub,2013-01-22 23:19:00,
2013-01-22 15:24:00,64.4,36.1,30.00,NE,45,2.0,4.0,35,0.00,,,0.00,meteohub,2013-01-22 23:24:00,
2013-01-22 15:30:00,64.0,36.5,30.00,NE,45,2.0,3.0,36,0.00,,,0.00,meteohub,2013-01-22 23:30:00,
2013-01-22 15:35:00,63.7,36.1,30.00,North,0,3.0,3.0,36,0.00,,,0.00,meteohub,2013-01-22 23:35:00,
2013-01-22 15:40:00,63.3,36.7,30.00,NE,45,2.0,3.0,37,0.00,,,0.00,meteohub,2013-01-22 23:40:00,
2013-01-22 15:45:00,63.0,36.3,30.00,NE,45,2.0,3.0,37,0.00,,,0.00,meteohub,2013-01-22 23:45:00,
2013-01-22 15:50:00,62.6,36.7,30.00,NE,45,2.0,3.0,38,0.00,,,0.00,meteohub,2013-01-22 23:50:00,
2013-01-22 15:56:00,62.4,37.2,30.00,NE,45,2.0,3.0,39,0.00,,,0.00,meteohub,2013-01-22 23:56:00,
2013-01-22 16:01:00,62.1,36.9,30.00,NE,45,2.0,3.0,39,0.00,,,0.00,meteohub,2013-01-23 00:01:00,
2013-01-22 16:06:00,61.7,37.2,29.99,NE,45,2.0,3.0,40,0.00,,,0.00,meteohub,2013-01-23 00:06:00,
2013-01-22 16:11:00,61.5,38.3,29.99,NW,315,2.0,3.0,42,0.00,,,0.00,meteohub,2013-01-23 00:11:00,
2013-01-22 16:16:00,61.3,38.1,29.99,NE,45,2.0,3.0,42,0.00,,,0.00,meteohub,2013-01-23 00:16:00,
2013-01-22 16:22:00,61.0,37.8,29.99,NE,45,2.0,2.0,42,0.00,,,0.00,meteohub,2013-01-23 00:22:00,
2013-01-22 16:27:00,60.6,36.9,29.99,North,0,2.0,3.0,41,0.00,,,0.00,meteohub,2013-01-23 00:27:00,
2013-01-22 16:32:00,60.3,36.5,29.99,North,0,1.0,3.0,41,0.00,,,0.00,meteohub,2013-01-23 00:32:00,
2013-01-22 16:37:00,59.9,36.7,29.99,North,0,1.0,3.0,42,0.00,,,0.00,meteohub,2013-01-23 00:37:00,
2013-01-22 16:42:00,59.5,36.5,29.99,North,0,1.0,2.0,42,0.00,,,0.00,meteohub,2013-01-23 00:42:00,
2013-01-22 16:47:00,59.2,36.7,29.98,North,0,1.0,2.0,43,0.00,,,0.00,meteohub,2013-01-23 00:47:00,
2013-01-22 16:52:00,59.0,36.5,29.99,North,0,1.0,2.0,43,0.00,,,0.00,meteohub,2013-01-23 00:52:00,
2013-01-22 16:57:00,58.6,36.9,29.99,North,0,1.0,2.0,44,0.00,,,0.00,meteohub,2013-01-23 00:57:00,
2013-01-22 17:02:00,58.5,36.7,30.00,North,0,0.0,2.0,44,0.00,,,0.00,meteohub,2013-01-23 01:02:00,
2013-01-22 17:08:00,57.7,37.0,30.00,North,0,0.0,1.0,46,0.00,,,0.00,meteohub,2013-01-23 01:08:00,
2013-01-22 17:13:00,57.4,36.7,29.99,North,0,0.0,1.0,46,0.00,,,0.00,meteohub,2013-01-23 01:13:00,
2013-01-22 17:18:00,57.0,37.0,29.99,North,0,0.0,1.0,47,0.00,,,0.00,meteohub,2013-01-23 01:18:00,
2013-01-22 17:23:00,56.5,37.0,29.99,North,0,2.0,2.0,48,0.00,,,0.00,meteohub,2013-01-23 01:23:00,
2013-01-22 17:29:00,56.1,37.2,29.99,NE,45,1.0,2.0,49,0.00,,,0.00,meteohub,2013-01-23 01:29:00,
2013-01-22 17:34:00,55.8,37.4,29.99,NE,45,0.0,2.0,50,0.00,,,0.00,meteohub,2013-01-23 01:34:00,
2013-01-22 17:39:00,55.6,37.8,29.99,NE,45,0.0,2.0,51,0.00,,,0.00,meteohub,2013-01-23 01:39:00,
2013-01-22 17:44:00,55.0,37.8,29.99,NE,45,0.0,2.0,52,0.00,,,0.00,meteohub,2013-01-23 01:44:00,
2013-01-22 17:50:00,54.7,37.9,29.99,NE,45,0.0,1.0,53,0.00,,,0.00,meteohub,2013-01-23 01:50:00,
2013-01-22 17:55:00,54.1,37.9,30.00,NE,45,0.0,0.0,54,0.00,,,0.00,meteohub,2013-01-23 01:55:00,
2013-01-22 18:00:00,53.8,37.6,29.99,NE,45,0.0,0.0,54,0.00,,,0.00,meteohub,2013-01-23 02:00:00,
2013-01-22 18:05:00,53.4,37.6,29.99,NE,45,0.0,0.0,55,0.00,,,0.00,meteohub,2013-01-23 02:05:00,
2013-01-22 18:10:00,52.9,37.6,30.00,NE,45,0.0,0.0,56,0.00,,,0.00,meteohub,2013-01-23 02:10:00,
2013-01-22 18:15:00,52.5,37.8,30.00,NE,45,0.0,0.0,57,0.00,,,0.00,meteohub,2013-01-23 02:15:00,
2013-01-22 18:20:00,52.3,37.6,30.00,NE,45,0.0,0.0,57,0.00,,,0.00,meteohub,2013-01-23 02:20:00,
2013-01-22 18:25:00,51.6,37.4,30.00,NE,45,0.0,0.0,58,0.00,,,0.00,meteohub,2013-01-23 02:25:00,
2013-01-22 18:31:00,51.3,37.4,30.00,NE,45,0.0,0.0,59,0.00,,,0.00,meteohub,2013-01-23 02:31:00,
2013-01-22 18:36:00,51.1,37.2,29.99,NE,45,0.0,0.0,59,0.00,,,0.00,meteohub,2013-01-23 02:36:00,
2013-01-22 18:41:00,51.1,37.2,30.00,NE,45,0.0,0.0,59,0.00,,,0.00,meteohub,2013-01-23 02:41:00,
2013-01-22 18:47:00,50.5,37.6,30.00,NE,45,0.0,0.0,61,0.00,,,0.00,meteohub,2013-01-23 02:47:00,
2013-01-22 18:52:00,50.4,37.4,30.00,NE,45,0.0,0.0,61,0.00,,,0.00,meteohub,2013-01-23 02:52:00,
2013-01-22 18:57:00,50.0,37.6,30.00,NE,45,0.0,0.0,62,0.00,,,0.00,meteohub,2013-01-23 02:57:00,
2013-01-22 19:02:00,49.8,37.4,30.00,NE,45,0.0,0.0,62,0.00,,,0.00,meteohub,2013-01-23 03:02:00,
2013-01-22 19:07:00,49.8,37.4,30.00,NE,45,0.0,0.0,62,0.00,,,0.00,meteohub,2013-01-23 03:07:00,
2013-01-22 19:13:00,49.6,37.2,30.00,NE,45,0.0,0.0,62,0.00,,,0.00,meteohub,2013-01-23 03:13:00,
2013-01-22 19:18:00,49.6,37.2,30.00,NE,45,0.0,0.0,62,0.00,,,0.00,meteohub,2013-01-23 03:18:00,
2013-01-22 19:23:00,49.5,37.0,30.00,NE,45,0.0,0.0,62,0.00,,,0.00,meteohub,2013-01-23 03:23:00,
2013-01-22 19:28:00,49.3,36.9,30.00,North,0,2.0,0.0,62,0.00,,,0.00,meteohub,2013-01-23 03:28:00,
2013-01-22 19:33:00,49.1,37.0,30.00,North,0,2.0,2.0,63,0.00,,,0.00,meteohub,2013-01-23 03:33:00,
2013-01-22 19:38:00,48.9,36.9,30.00,North,0,2.0,2.0,63,0.00,,,0.00,meteohub,2013-01-23 03:38:00,
2013-01-22 19:43:00,48.7,36.7,30.00,North,0,2.0,2.0,63,0.00,,,0.00,meteohub,2013-01-23 03:43:00,
2013-01-22 19:49:00,48.7,36.7,29.99,North,0,2.0,2.0,63,0.00,,,0.00,meteohub,2013-01-23 03:49:00,
2013-01-22 19:54:00,48.6,36.5,30.00,North,0,1.0,2.0,63,0.00,,,0.00,meteohub,2013-01-23 03:54:00,
2013-01-22 19:59:00,48.6,36.5,30.00,North,0,1.0,2.0,63,0.00,,,0.00,meteohub,2013-01-23 03:59:00,
2013-01-22 20:05:00,48.6,36.5,30.01,North,0,1.0,2.0,63,0.00,,,0.00,meteohub,2013-01-23 04:05:00,
2013-01-22 20:10:00,48.4,36.7,30.00,NE,45,1.0,1.0,64,0.00,,,0.00,meteohub,2013-01-23 04:10:00,
2013-01-22 20:15:00,48.4,36.7,29.99,North,0,2.0,2.0,64,0.00,,,0.00,meteohub,2013-01-23 04:15:00,
2013-01-22 20:20:00,48.4,36.7,29.99,North,0,1.0,2.0,64,0.00,,,0.00,meteohub,2013-01-23 04:20:00,
2013-01-22 20:26:00,48.4,36.7,29.99,North,0,2.0,2.0,64,0.00,,,0.00,meteohub,2013-01-23 04:26:00,
2013-01-22 20:31:00,48.6,37.4,30.00,North,0,2.0,2.0,65,0.00,,,0.00,meteohub,2013-01-23 04:31:00,
2013-01-22 20:36:00,48.6,37.4,30.00,North,0,2.0,2.0,65,0.00,,,0.00,meteohub,2013-01-23 04:36:00,
2013-01-22 20:41:00,48.7,37.6,30.00,North,0,1.0,2.0,65,0.00,,,0.00,meteohub,2013-01-23 04:41:00,
2013-01-22 20:46:00,48.6,37.4,30.00,South,180,1.0,2.0,65,0.00,,,0.00,meteohub,2013-01-23 04:46:00,
2013-01-22 20:52:00,48.6,37.4,30.01,North,0,1.0,2.0,65,0.00,,,0.00,meteohub,2013-01-23 04:52:00,
2013-01-22 20:57:00,48.6,37.4,30.01,North,0,1.0,2.0,65,0.00,,,0.00,meteohub,2013-01-23 04:57:00,
2013-01-22 21:01:00,48.6,37.8,30.01,North,0,2.0,2.0,66,0.00,,,0.00,meteohub,2013-01-23 05:01:00,
2013-01-22 21:02:00,48.6,37.8,30.01,North,0,2.0,2.0,66,0.00,,,0.00,meteohub,2013-01-23 05:02:00,
2013-01-22 21:04:00,48.6,37.8,30.01,North,0,2.0,2.0,66,0.00,,,0.00,meteohub,2013-01-23 05:04:00,
2013-01-22 21:05:00,48.6,37.8,30.01,North,0,2.0,2.0,66,0.00,,,0.00,meteohub,2013-01-23 05:05:00,
2013-01-22 21:10:00,48.6,37.8,30.01,North,0,0.0,2.0,66,0.00,,,0.00,meteohub,2013-01-23 05:10:00,
2013-01-22 21:15:00,48.4,37.6,30.01,North,0,1.0,2.0,66,0.00,,,0.00,meteohub,2013-01-23 05:15:00,
2013-01-22 21:20:00,48.2,37.4,30.02,North,0,2.0,2.0,66,0.00,,,0.00,meteohub,2013-01-23 05:20:00,
2013-01-22 21:26:00,48.2,37.4,30.01,North,0,2.0,2.0,66,0.00,,,0.00,meteohub,2013-01-23 05:26:00,
2013-01-22 21:31:00,48.2,37.4,30.01,North,0,2.0,2.0,66,0.00,,,0.00,meteohub,2013-01-23 05:31:00,
2013-01-22 21:36:00,48.2,37.4,30.01,North,0,2.0,2.0,66,0.00,,,0.00,meteohub,2013-01-23 05:36:00,
2013-01-22 21:42:00,48.4,37.6,30.01,North,0,2.0,2.0,66,0.00,,,0.00,meteohub,2013-01-23 05:42:00,
2013-01-22 21:47:00,48.4,37.6,30.02,North,0,2.0,2.0,66,0.00,,,0.00,meteohub,2013-01-23 05:47:00,
2013-01-22 21:52:00,48.4,37.6,30.02,NE,45,2.0,2.0,66,0.00,,,0.00,meteohub,2013-01-23 05:52:00,
2013-01-22 21:57:00,48.6,37.8,30.02,North,0,2.0,2.0,66,0.00,,,0.00,meteohub,2013-01-23 05:57:00,
2013-01-22 22:02:00,48.6,37.8,30.01,North,0,1.0,2.0,66,0.00,,,0.00,meteohub,2013-01-23 06:02:00,
2013-01-22 22:07:00,48.6,37.8,30.01,North,0,1.0,2.0,66,0.00,,,0.00,meteohub,2013-01-23 06:07:00,
2013-01-22 22:12:00,48.6,37.8,30.02,North,0,2.0,2.0,66,0.00,,,0.00,meteohub,2013-01-23 06:12:00,
2013-01-22 22:17:00,48.6,37.8,30.03,North,0,1.0,2.0,66,0.00,,,0.00,meteohub,2013-01-23 06:17:00,
2013-01-22 22:22:00,48.4,37.6,30.03,North,0,2.0,2.0,66,0.00,,,0.00,meteohub,2013-01-23 06:22:00,
2013-01-22 22:28:00,48.4,37.6,30.02,North,0,2.0,2.0,66,0.00,,,0.00,meteohub,2013-01-23 06:28:00,
2013-01-22 22:33:00,48.4,37.6,30.02,North,0,1.0,2.0,66,0.00,,,0.00,meteohub,2013-01-23 06:33:00,
2013-01-22 22:38:00,48.4,37.6,30.02,North,0,2.0,2.0,66,0.00,,,0.00,meteohub,2013-01-23 06:38:00,
2013-01-22 22:43:00,48.4,37.6,30.02,North,0,2.0,2.0,66,0.00,,,0.00,meteohub,2013-01-23 06:43:00,
2013-01-22 22:49:00,48.2,37.4,30.02,North,0,2.0,2.0,66,0.00,,,0.00,meteohub,2013-01-23 06:49:00,
2013-01-22 22:54:00,48.2,37.4,30.03,North,0,2.0,2.0,66,0.00,,,0.00,meteohub,2013-01-23 06:54:00,
2013-01-22 22:59:00,48.0,37.2,30.02,NE,45,0.0,2.0,66,0.00,,,0.00,meteohub,2013-01-23 06:59:00,
2013-01-22 23:04:00,48.0,37.2,30.02,NE,45,2.0,2.0,66,0.00,,,0.00,meteohub,2013-01-23 07:04:00,
2013-01-22 23:09:00,47.8,37.0,30.02,NE,45,0.0,2.0,66,0.00,,,0.00,meteohub,2013-01-23 07:09:00,
2013-01-22 23:14:00,47.7,36.9,30.02,North,0,0.0,2.0,66,0.00,,,0.00,meteohub,2013-01-23 07:14:00,
2013-01-22 23:20:00,47.5,36.7,30.02,North,0,1.0,2.0,66,0.00,,,0.00,meteohub,2013-01-23 07:20:00,
2013-01-22 23:25:00,47.3,36.9,30.02,North,0,1.0,2.0,67,0.00,,,0.00,meteohub,2013-01-23 07:25:00,
2013-01-22 23:30:00,47.3,36.9,30.02,North,0,0.0,2.0,67,0.00,,,0.00,meteohub,2013-01-23 07:30:00,
2013-01-22 23:35:00,47.3,36.9,30.02,North,0,0.0,2.0,67,0.00,,,0.00,meteohub,2013-01-23 07:35:00,
2013-01-22 23:40:00,47.3,37.2,30.01,North,0,2.0,2.0,68,0.00,,,0.00,meteohub,2013-01-23 07:40:00,
2013-01-22 23:46:00,47.3,37.2,30.01,North,0,1.0,2.0,68,0.00,,,0.00,meteohub,2013-01-23 07:46:00,
2013-01-22 23:51:00,47.3,37.2,30.01,North,0,0.0,2.0,68,0.00,,,0.00,meteohub,2013-01-23 07:51:00,
2013-01-22 23:57:00,47.1,37.0,30.02,North,0,0.0,2.0,68,0.00,,,0.00,meteohub,2013-01-23 07:57:00,